This is the latest recevied weather packets stored in our database for station/object K1AWR. If no packets are shown the sender has not sent any weather packets the latest 10 day(s).
| Time | Temp. | Humidity | Pressure | Rain* | Wind** | Luminosity | Snow |
|---|---|---|---|---|---|---|---|
| 1777604982 | 10° C | 64% | 1009.5 hPa | 0 mm | - | 0 W/m² | - |
| 1777604678 | 9.44° C | 66% | 1009.6 hPa | 0 mm | - | 0 W/m² | - |
| 1777604375 | 10° C | 67% | 1009.5 hPa | 0 mm | - | 0 W/m² | - |
| 1777604074 | 10° C | 64% | 1009.4 hPa | 0 mm | - | 0 W/m² | - |
| 1777603772 | 10° C | 63% | 1009.3 hPa | 0 mm | - | 0 W/m² | - |
| 1777603468 | 10° C | 64% | 1009.2 hPa | 0 mm | - | 0 W/m² | - |
| 1777603164 | 10° C | 65% | 1009.3 hPa | 0 mm | - | 0 W/m² | - |
| 1777602860 | 10° C | 65% | 1009.2 hPa | 0 mm | - | 0 W/m² | - |
| 1777602555 | 10.56° C | 66% | 1009.3 hPa | 0 mm | - | 0 W/m² | - |
| 1777602251 | 10.56° C | 63% | 1009.3 hPa | 0 mm | - | 0 W/m² | - |
| 1777601947 | 10° C | 66% | 1009.1 hPa | 0 mm | - | 0 W/m² | - |
| 1777601647 | 10.56° C | 65% | 1009 hPa | 0 mm | - | 0 W/m² | - |
| 1777601343 | 10.56° C | 64% | 1009.1 hPa | 0 mm | - | 0 W/m² | - |
| 1777601039 | 10.56° C | 67% | 1009.1 hPa | 0 mm | - | 0 W/m² | - |
| 1777600736 | 10.56° C | 66% | 1009.2 hPa | 0 mm | - | 0 W/m² | - |
| 1777600432 | 10.56° C | 65% | 1009.1 hPa | 0 mm | - | 0 W/m² | - |
| 1777600128 | 11.11° C | 65% | 1009 hPa | 0 mm | - | 0 W/m² | - |
| 1777599823 | 11.67° C | 63% | 1009 hPa | 0 mm | - | 0 W/m² | - |
| 1777599519 | 11.67° C | 62% | 1009 hPa | 0 mm | - | 0 W/m² | - |
| 1777599217 | 11.67° C | 64% | 1009 hPa | 0 mm | - | 0 W/m² | - |
| 1777598912 | 11.67° C | 63% | 1008.8 hPa | 0 mm | - | 0 W/m² | - |
| 1777598610 | 11.67° C | 63% | 1009 hPa | 0 mm | - | 0 W/m² | - |
| 1777598306 | 12.22° C | 62% | 1008.8 hPa | 0 mm | - | 0 W/m² | - |
| 1777598004 | 12.22° C | 62% | 1008.7 hPa | 0 mm | - | 0 W/m² | - |
| 1777597703 | 12.22° C | 61% | 1008.8 hPa | 0 mm | - | 0 W/m² | - |
* Rain latest hour (hover to see other rain measurements)
** Current wind speed in m/s (hover to see current wind gust speed)